カタログに戻る

STARLINK-4380

運用中通信SSO
NORAD 53650·PAYLOAD·🇺🇸 United States

打ち上げ Aug 31, 2022 から Vandenberg Space Force Base

Loading…

次のパス (今後24時間)

TLE

最新Source: CelesTrak SupGP

元期: Sep 14, 2026, 22:24 UTC

1 53650C 22105C   26257.93381944  .00028053  00000+0  19482-2 0  2572
2 53650  97.2851 132.0597 0001589  78.1428 255.4894 15.05635274    19

AllMySatでSTARLINK-4380をリアルタイム追跡

Download on the App Store